Latest Weather Observations for Gabo Island

IDN60801

Issued at 6:23 pm EST Saturday 9 May 2026 (issued every 10 minutes, with the page automatically refreshed every 10 minutes)

About weather observations | Map of weather stations | Latest weather observations for NSW | Other Formats
Station Details ID: 084016 Name: GABO ISLAND LIGHTHOUSE Lat: -37.57 Lon: 149.92 Height: 15.0 m
Data from the previous 72 hours. | See also: Recent months at Gabo Island
Date/Time
EST
Temp
°C
App
Temp
°C
Dew
Point
°C
Rel
Hum
%
Delta-T
°C
Wind Press
QNH
hPa
Press
MSL
hPa
Rain since
9am
mm
Dir  Spd
km/h
Gust
km/h
Spd
kts
Gust
kts
09/06:00pm 15.5 11.4 12.6 83 1.6 SW 26 30 14 16 1024.5 1024.5 0.0
09/05:30pm 15.5 11.4 12.8 84 1.5 SW 26 30 14 16 1024.2 1024.2 0.0
09/05:00pm 15.7 10.6 13.0 84 1.5 SW 32 35 17 19 1023.7 1023.7 0.0
09/04:30pm 15.7 9.6 13.0 84 1.5 SW 37 43 20 23 1023.5 1023.5 0.0
09/04:00pm 15.8 9.7 12.9 83 1.6 SW 37 46 20 25 1023.3 1023.3 0.0
09/03:30pm 15.8 8.4 12.5 81 1.8 SW 43 46 23 25 1023.3 1023.3 0.0
09/03:00pm 15.9 8.9 12.6 81 1.8 SW 41 48 22 26 1023.2 1023.2 0.0
09/02:30pm 15.9 8.8 12.3 79 2.0 SW 41 50 22 27 1023.3 1023.3 0.0
09/02:00pm 16.1 9.1 12.5 79 2.0 SW 41 48 22 26 1023.3 1023.3 0.0
09/01:30pm 15.9 9.0 11.7 76 2.3 SW 39 44 21 24 1023.5 1023.5 0.0
09/01:00pm 16.3 10.0 12.3 77 2.2 SW 37 43 20 23 1023.8 1023.8 0.0
09/12:30pm 16.6 10.8 11.5 72 2.8 WSW 33 43 18 23 1024.0 1024.0 0.0
09/12:00pm 16.3 10.5 11.5 73 2.6 WSW 33 43 18 23 1024.3 1024.3 0.0
09/11:30am 16.0 9.0 11.4 74 2.5 WSW 39 46 21 25 1024.6 1024.6 0.0
09/11:00am 15.5 8.9 11.3 76 2.2 WSW 37 48 20 26 1024.6 1024.6 0.0
09/10:30am 15.2 7.7 10.8 75 2.3 WSW 41 50 22 27 1024.6 1024.6 0.0
09/10:00am 15.3 8.8 11.7 79 1.9 WSW 37 46 20 25 1024.6 1024.6 0.0
09/09:30am 14.7 8.1 11.3 80 1.8 WSW 37 48 20 26 1024.6 1024.6 0.0
09/09:00am 13.7 6.6 11.0 84 1.4 W 39 48 21 26 1024.5 1024.5 1.8
09/08:30am 13.3 5.8 11.0 86 1.2 W 41 50 22 27 1024.4 1024.4 1.8
09/08:00am 12.9 5.9 11.1 89 0.9 W 39 50 21 27 1024.0 1024.0 1.8
09/07:30am 13.0 6.4 11.2 89 0.9 W 37 46 20 25 1023.7 1023.7 1.8
09/07:00am 12.8 6.1 11.0 89 0.9 W 37 44 20 24 1023.5 1023.5 1.8
09/06:30am 12.8 6.2 11.2 90 0.8 WSW 37 46 20 25 1023.1 1023.1 1.8
09/06:00am 12.6 5.9 11.0 90 0.8 W 37 46 20 25 1022.8 1022.8 1.8
09/05:30am 12.8 6.1 11.0 89 0.9 W 37 44 20 24 1022.5 1022.5 1.8
09/05:00am 13.0 6.7 11.2 89 0.9 WSW 35 44 19 24 1022.4 1022.4 1.8
09/04:30am 12.7 6.1 11.3 91 0.7 WSW 37 46 20 25 1022.2 1022.2 1.8
09/04:00am 12.8 5.8 11.4 91 0.7 WSW 39 50 21 27 1021.9 1021.9 1.8
09/03:30am 12.6 6.0 11.2 91 0.7 WSW 37 44 20 24 1021.8 1021.8 1.8
09/03:00am 12.7 6.1 11.4 92 0.7 W 37 46 20 25 1021.6 1021.6 1.8
09/02:30am 12.7 6.1 11.4 92 0.7 W 37 46 20 25 1021.6 1021.6 1.8
09/02:00am 12.6 6.4 11.3 92 0.7 W 35 44 19 24 1021.6 1021.6 1.8
09/01:30am 12.8 6.7 11.7 93 0.6 W 35 44 19 24 1021.5 1021.5 1.8
09/01:00am 12.9 6.4 11.8 93 0.6 W 37 48 20 26 1021.3 1021.3 1.8
09/12:30am 12.8 6.3 11.7 93 0.6 W 37 44 20 24 1021.2 1021.2 1.8
09/12:00am 13.0 6.9 11.7 92 0.7 W 35 43 19 23 1021.1 1021.1 1.6
 
Date/Time
EST
Temp
°C
App
Temp
°C
Dew
Point
°C
Rel
Hum
%
Delta-T
°C
Wind Press
QNH
hPa
Press
MSL
hPa
Rain since
9am
mm
Dir  Spd
km/h
Gust
km/h
Spd
kts
Gust
kts
08/11:30pm 13.2 6.7 11.6 90 0.9 W 37 48 20 26 1021.0 1021.0 1.6
08/11:00pm 13.5 6.7 12.1 91 0.8 WSW 39 46 21 25 1020.9 1020.9 1.6
08/10:30pm 13.9 7.3 12.6 92 0.7 WSW 39 48 21 26 1021.0 1021.0 1.4
08/10:00pm 13.9 7.3 12.5 91 0.8 W 39 48 21 26 1020.9 1020.9 1.4
08/09:30pm 14.5 7.3 11.8 84 1.5 WSW 41 50 22 27 1020.4 1020.4 1.2
08/09:06pm 14.5 7.0 12.0 85 1.4 WSW 43 61 23 33 1020.2 1020.2 1.2
08/09:00pm 14.8 6.7 12.1 84 1.5 WSW 46 61 25 33 1020.2 1020.2 1.2
08/08:30pm 14.9 5.6 12.0 83 1.6 WSW 52 65 28 35 1020.0 1020.0 1.2
08/08:00pm 15.0 7.0 12.5 85 1.4 WSW 46 59 25 32 1019.8 1019.8 1.2
08/07:30pm 14.7 5.4 11.7 82 1.6 WSW 52 63 28 34 1019.4 1019.4 1.2
08/07:23pm 15.0 4.9 11.8 81 1.7 SW 56 74 30 40 1019.5 1019.5 1.2
08/07:00pm 15.0 5.3 11.8 81 1.7 SW 54 65 29 35 1019.1 1019.1 1.2
08/06:30pm 15.0 3.9 11.6 80 1.8 SW 61 76 33 41 1018.6 1018.6 1.2
08/06:18pm 15.0 5.7 12.0 82 1.6 SW 52 70 28 38 1018.5 1018.5 1.2
08/06:00pm 15.1 5.1 12.1 82 1.6 SW 56 72 30 39 1018.2 1018.2 1.2
08/05:41pm 15.0 3.5 11.6 80 1.8 SW 63 83 34 45 1017.7 1017.7 1.2
08/05:30pm 14.8 3.5 11.0 78 2.0 SW 61 78 33 42 1017.5 1017.5 1.2
08/05:00pm 14.6 3.3 12.1 85 1.4 SW 63 83 34 45 1017.1 1017.1 1.2
08/04:32pm 14.9 3.9 11.9 82 1.6 SW 61 80 33 43 1016.5 1016.5 1.2
08/04:30pm 15.0 4.0 12.0 82 1.6 SW 61 78 33 42 1016.5 1016.5 1.2
08/04:16pm 14.8 4.0 12.5 86 1.3 SW 61 80 33 43 1016.2 1016.2 1.2
08/04:00pm 14.4 2.8 12.3 87 1.1 SW 65 78 35 42 1016.2 1016.2 1.2
08/03:41pm 15.4 3.1 11.4 77 2.1 SW 67 85 36 46 1015.8 1015.8 1.2
08/03:30pm 15.5 2.8 11.3 76 2.3 SW 69 83 37 45 1015.7 1015.7 1.2
08/03:11pm 15.4 2.6 10.8 74 2.4 SW 69 89 37 48 1015.4 1015.4 1.2
08/03:00pm 15.6 2.7 11.2 75 2.4 SW 70 83 38 45 1015.4 1015.4 1.2
08/02:35pm 15.5 3.8 12.1 80 1.9 SW 65 83 35 45 1015.2 1015.2 1.2
08/02:30pm 15.3 2.7 12.1 81 1.7 SW 70 83 38 45 1015.2 1015.2 1.2
08/02:00pm 15.7 2.9 10.9 73 2.6 SW 69 87 37 47 1014.8 1014.8 1.2
08/01:30pm 15.0 3.7 12.0 82 1.6 WSW 63 85 34 46 1014.6 1014.6 1.2
08/01:00pm 15.4 3.7 12.2 81 1.7 WSW 65 83 35 45 1014.4 1014.4 1.2
08/12:30pm 15.0 4.1 12.1 83 1.6 WSW 61 80 33 43 1014.1 1014.1 1.2
08/12:01pm 14.8 3.2 12.3 85 1.4 WSW 65 83 35 45 1014.1 1014.1 1.2
08/12:00pm 14.7 3.0 12.2 85 1.4 WSW 65 82 35 44 1014.1 1014.1 1.2
08/11:33am 13.3 1.2 11.9 91 0.7 WSW 67 85 36 46 1014.2 1014.2 1.2
08/11:30am 13.8 1.8 12.2 90 0.9 WSW 67 83 36 45 1014.2 1014.2 0.8
08/11:02am 15.2 2.8 12.2 82 1.6 WSW 69 87 37 47 1013.8 1013.8 0.2
08/11:00am 15.0 2.3 11.8 81 1.7 WSW 70 87 38 47 1013.8 1013.8 0.2
08/10:31am 14.4 3.8 11.9 85 1.3 WSW 59 78 32 42 1013.7 1013.7 0.2
08/10:30am 14.6 4.4 12.1 85 1.4 WSW 57 72 31 39 1013.8 1013.8 0.2
08/10:00am 14.3 4.3 12.0 86 1.2 WSW 56 76 30 41 1013.2 1013.2 0.2
08/09:30am 13.8 3.2 12.0 89 1.0 WSW 59 78 32 42 1013.1 1013.1 0.0
08/09:07am 13.3 3.7 12.0 92 0.7 WSW 54 72 29 39 1013.1 1013.1 0.0
08/09:00am 13.1 3.4 11.8 92 0.7 WSW 54 67 29 36 1013.1 1013.1 19.4
08/08:30am 13.3 3.1 11.9 91 0.7 WSW 57 76 31 41 1012.8 1012.8 18.6
08/08:02am 14.0 3.7 11.7 86 1.2 WSW 57 76 31 41 1012.4 1012.4 18.4
08/08:00am 13.6 2.8 11.3 86 1.2 WSW 59 76 32 41 1012.3 1012.3 18.4
08/07:30am 13.7 2.6 11.6 87 1.1 WSW 61 82 33 44 1012.0 1012.0 18.4
08/07:07am 13.6 2.6 11.8 89 1.0 WSW 61 80 33 43 1011.7 1011.7 18.4
08/07:00am 13.6 1.6 11.1 85 1.3 WSW 65 80 35 43 1011.6 1011.6 18.2
08/06:30am 13.5 1.9 11.2 86 1.2 WSW 63 82 34 44 1011.1 1011.1 18.2
08/06:00am 14.2 1.2 10.2 77 2.1 WSW 69 95 37 51 1010.5 1010.5 18.0
08/05:30am 14.0 2.5 10.0 77 2.1 WSW 61 83 33 45 1010.0 1010.0 18.0
08/05:05am 13.8 1.8 9.6 76 2.2 WSW 63 82 34 44 1010.0 1010.0 18.0
08/05:00am 13.8 1.7 9.3 74 2.3 WSW 63 76 34 41 1009.9 1009.9 18.0
08/04:30am 14.1 3.3 10.1 77 2.1 WSW 57 80 31 43 1010.1 1010.1 18.0
08/04:14am 14.0 2.4 9.6 75 2.3 WSW 61 80 33 43 1010.3 1010.3 18.0
08/04:00am 13.9 1.4 9.1 73 2.4 WSW 65 80 35 43 1010.2 1010.2 18.0
08/03:34am 13.8 3.1 9.5 75 2.2 W 56 74 30 40 1010.5 1010.5 18.0
08/03:30am 13.8 3.0 9.3 74 2.3 W 56 70 30 38 1010.5 1010.5 18.0
08/03:20am 13.5 2.9 8.6 72 2.5 W 54 72 29 39 1010.7 1010.7 18.0
08/03:00am 13.2 3.8 8.7 74 2.3 W 48 63 26 34 1011.1 1011.1 18.0
08/02:37am 12.4 3.1 7.7 73 2.3 W 46 65 25 35 1011.6 1011.6 18.0
08/02:30am 12.4 2.7 7.7 73 2.3 W 48 61 26 33 1011.7 1011.7 18.0
08/02:00am 11.9 2.9 7.2 73 2.3 W 44 56 24 30 1012.3 1012.3 18.0
08/01:30am 11.3 2.2 6.8 74 2.1 W 44 56 24 30 1012.8 1012.8 18.0
08/01:00am 11.1 1.6 6.8 75 2.0 W 46 61 25 33 1013.3 1013.3 18.0
08/12:30am 11.1 0.9 7.0 76 2.0 W 50 61 27 33 1013.9 1013.9 18.0
08/12:00am 10.9 1.4 6.6 75 2.0 W 46 56 25 30 1014.3 1014.3 18.0
 
Date/Time
EST
Temp
°C
App
Temp
°C
Dew
Point
°C
Rel
Hum
%
Delta-T
°C
Wind Press
QNH
hPa
Press
MSL
hPa
Rain since
9am
mm
Dir  Spd
km/h
Gust
km/h
Spd
kts
Gust
kts
07/11:30pm 10.9 2.1 7.2 78 1.8 W 43 56 23 30 1014.8 1014.8 18.0
07/11:00pm 10.5 1.0 6.6 77 1.8 W 46 59 25 32 1015.2 1015.2 18.0
07/10:30pm 10.0 0.2 6.9 81 1.5 W 48 61 26 33 1015.7 1015.7 18.0
07/10:00pm 9.9 -0.2 7.2 83 1.3 W 50 65 27 35 1015.8 1015.8 18.0
07/09:30pm 9.5 -0.6 7.4 87 1.0 W 50 65 27 35 1016.0 1016.0 18.0
07/09:00pm 10.0 -0.1 7.3 83 1.3 W 50 63 27 34 1015.9 1015.9 17.8
07/08:38pm 10.1 -0.1 7.0 81 1.5 W 50 69 27 37 1015.8 1015.8 17.8
07/08:30pm 9.9 -1.1 6.8 81 1.5 W 54 69 29 37 1015.7 1015.7 17.8
07/08:00pm 9.8 -1.2 6.7 81 1.4 W 54 70 29 38 1015.9 1015.9 17.8
07/07:30pm 9.7 -1.8 6.2 79 1.6 W 56 67 30 36 1016.0 1016.0 17.8
07/07:13pm 9.7 -2.0 6.2 79 1.6 W 57 76 31 41 1015.7 1015.7 17.8
07/07:00pm 9.6 -1.4 6.7 82 1.4 W 54 69 29 37 1015.7 1015.7 17.8
07/06:32pm 9.4 -2.2 6.8 84 1.2 W 57 76 31 41 1015.5 1015.5 17.8
07/06:30pm 9.5 -2.4 6.8 83 1.3 W 59 76 32 41 1015.5 1015.5 17.8
07/06:27pm 9.3 -2.3 6.6 83 1.3 W 57 76 31 41 1015.4 1015.4 17.8
07/06:00pm 9.0 -2.1 6.4 84 1.2 W 54 69 29 37 1015.6 1015.6 17.8
07/05:30pm 9.2 -2.1 5.6 78 1.6 W 54 76 29 41 1015.4 1015.4 17.8
07/05:01pm 9.4 -0.8 5.4 76 1.8 W 48 70 26 38 1015.3 1015.3 17.8
07/05:00pm 9.5 -0.2 5.7 77 1.7 W 46 61 25 33 1015.4 1015.4 17.8
07/04:44pm 9.7 -0.7 5.9 77 1.7 W 50 69 27 37 1015.2 1015.2 17.8
07/04:30pm 10.0 -2.2 5.8 75 1.9 W 59 72 32 39 1015.1 1015.1 17.8
07/04:06pm 10.5 -1.0 7.2 80 1.6 WSW 57 76 31 41 1015.0 1015.0 17.8
07/04:00pm 10.2 -1.8 6.5 78 1.7 WSW 59 74 32 40 1014.9 1014.9 17.8
07/03:48pm 10.3 -1.0 7.9 85 1.2 W 57 76 31 41 1014.7 1014.7 17.8
07/03:43pm 9.6 -1.9 6.9 83 1.3 W 57 76 31 41 1014.5 1014.5 17.8
07/03:40pm 9.3 -1.8 6.4 82 1.3 W 54 72 29 39 1014.6 1014.6 17.8
07/03:30pm 9.2 0.4 7.2 87 0.9 WSW 43 61 23 33 1015.0 1015.0 17.8
07/03:18pm 8.9 2.9 6.9 87 0.9 SW 28 48 15 26 1015.5 1015.5 17.0
07/03:08pm 7.7 -3.2 5.7 87 0.9 SSW 52 74 28 40 1015.3 1015.3 16.0
07/03:02pm 7.5 -5.5 5.6 88 0.9 SSW 63 82 34 44 1014.9 1014.9 14.8
07/03:00pm 7.7 -5.5 6.2 90 0.7 SSW 65 82 35 44 1015.1 1015.1 14.6
07/02:52pm 8.3 -3.1 6.6 89 0.8 SSW 56 80 30 43 1015.1 1015.1 12.6
07/02:50pm 7.9 -3.7 5.9 87 0.9 SSW 56 80 30 43 1014.9 1014.9 12.2
07/02:32pm 8.5 -3.5 6.6 88 0.9 WSW 59 78 32 42 1015.1 1015.1 9.0
07/02:30pm 8.5 -3.1 6.5 87 0.9 WSW 57 72 31 39 1015.1 1015.1 8.8
07/02:29pm 8.5 -2.9 6.5 87 0.9 WSW 56 72 30 39 1015.0 1015.0 8.6
07/02:28pm 8.8 -2.1 7.1 89 0.8 WSW 54 72 29 39 1015.0 1015.0 8.6
07/02:27pm 9.1 -1.4 7.4 89 0.8 WSW 52 69 28 37 1014.9 1014.9 8.4
07/02:24pm 9.1 -0.6 7.4 89 0.8 WSW 48 67 26 36 1014.8 1014.8 8.4
07/02:17pm 9.3 -0.4 7.3 87 0.9 WSW 48 63 26 34 1014.5 1014.5 7.8
07/02:13pm 9.2 -1.7 7.3 88 0.9 WSW 54 72 29 39 1014.5 1014.5 7.6
07/02:00pm 8.5 -3.4 7.1 91 0.7 WSW 59 89 32 48 1014.4 1014.4 6.8
07/01:58pm 9.1 -2.1 7.7 91 0.7 WSW 56 74 30 40 1014.5 1014.5 6.6
07/01:44pm 8.5 -1.7 7.0 90 0.7 WSW 50 65 27 35 1014.5 1014.5 5.4
07/01:30pm 9.0 -2.3 7.3 89 0.8 WSW 56 72 30 39 1013.9 1013.9 4.6
07/01:00pm 9.5 -1.3 7.8 89 0.8 WSW 54 74 29 40 1013.7 1013.7 2.2
07/12:34pm 9.4 -1.5 7.2 86 1.0 W 54 76 29 41 1013.3 1013.3 1.2
07/12:30pm 9.2 -1.3 7.2 87 0.9 W 52 69 28 37 1013.4 1013.4 1.2
07/12:21pm 8.9 -1.4 6.5 85 1.1 W 50 69 27 37 1013.5 1013.5 1.0
07/12:00pm 9.1 -1.5 6.7 85 1.1 W 52 67 28 36 1013.7 1013.7 0.8
07/11:36am 9.6 -1.8 6.5 81 1.4 W 56 74 30 40 1013.1 1013.1 0.4
07/11:30am 9.9 -1.4 7.2 83 1.3 W 56 69 30 37 1013.3 1013.3 0.4
07/11:13am 9.7 -1.8 6.4 80 1.5 WSW 56 76 30 41 1013.6 1013.6 0.4
07/11:00am 10.0 -1.4 6.9 81 1.5 WSW 56 72 30 39 1013.5 1013.5 0.4
07/10:36am 10.3 -0.7 6.8 79 1.6 WSW 54 78 29 42 1013.3 1013.3 0.0
07/10:30am 10.2 -1.4 6.7 79 1.6 WSW 57 72 31 39 1013.3 1013.3 0.0
07/10:11am 10.7 -0.5 6.1 73 2.1 W 54 72 29 39 1013.2 1013.2 0.0
07/10:00am 11.0 -0.7 5.5 69 2.5 W 56 69 30 37 1013.2 1013.2 0.0
07/09:30am 10.2 -1.1 5.2 71 2.3 W 54 72 29 39 1013.3 1013.3 0.0
07/09:00am 10.0 -2.4 4.8 70 2.3 W 59 78 32 42 1013.2 1013.2 0.0
07/08:35am 9.4 -1.7 4.4 71 2.2 W 52 70 28 38 1013.1 1013.1 0.0
07/08:30am 9.6 -1.0 5.2 74 2.0 W 50 61 27 33 1013.1 1013.1 0.0
07/08:02am 9.7 0.6 5.7 76 1.8 W 43 61 23 33 1013.0 1013.0 0.0
07/08:00am 9.4 0.0 5.2 75 1.9 W 44 61 24 33 1012.8 1012.8 0.0
07/07:30am 9.7 -0.9 5.3 74 2.0 W 50 67 27 36 1012.9 1012.9 0.0
07/07:00am 9.8 -0.4 5.4 74 2.0 W 48 67 26 36 1012.5 1012.5 0.0
07/06:30am 10.0 -0.5 5.4 73 2.1 W 50 63 27 34 1012.4 1012.4 0.0
07/06:01am 9.9 -1.7 5.7 75 1.9 W 56 74 30 40 1011.3 1011.3 0.0
07/06:00am 9.9 -1.9 5.5 74 2.0 W 57 74 31 40 1011.3 1011.3 0.0
07/05:41am 9.8 -0.8 5.2 73 2.1 W 50 70 27 38 1011.7 1011.7 0.0
07/05:30am 10.1 0.4 5.9 75 1.9 W 46 59 25 32 1011.9 1011.9 0.0
07/05:00am 10.1 0.2 6.6 79 1.6 W 48 59 26 32 1012.4 1012.4 0.0
07/04:30am 10.2 1.6 6.7 79 1.6 WSW 41 50 22 27 1012.5 1012.5 0.0
07/04:01am 10.7 0.8 6.8 77 1.8 WSW 48 67 26 36 1012.1 1012.1 0.0
07/04:00am 11.0 1.3 7.5 79 1.7 WSW 48 63 26 34 1012.1 1012.1 0.0
07/03:59am 11.0 1.3 7.7 80 1.6 WSW 48 67 26 36 1012.1 1012.1 0.0
07/03:30am 11.4 0.1 7.9 79 1.7 WSW 57 69 31 37 1011.9 1011.9 0.0
07/03:15am 11.6 0.1 8.6 82 1.5 WSW 59 78 32 42 1011.7 1011.7 0.0
07/03:00am 11.8 0.4 9.0 83 1.4 WSW 59 76 32 41 1011.6 1011.6 0.0
07/02:57am 12.1 1.2 9.7 85 1.2 WSW 57 76 31 41 1011.7 1011.7 0.0
07/02:30am 12.6 1.8 9.8 83 1.4 WSW 57 74 31 40 1011.7 1011.7 0.0
07/02:27am 12.9 2.2 10.3 84 1.3 WSW 57 76 31 41 1011.8 1011.8 0.0
07/02:00am 13.7 4.4 10.5 81 1.7 WSW 50 70 27 38 1011.7 1011.7 0.0
07/01:59am 13.7 4.3 10.3 80 1.8 WSW 50 70 27 38 1011.7 1011.7 0.0
07/01:48am 13.9 8.7 10.3 79 1.9 W 28 69 15 37 1011.5 1011.5 0.0
07/01:47am 13.5 8.6 10.1 80 1.8 W 26 44 14 24 1011.5 1011.5 0.0
07/01:30am 12.7 8.9 9.0 78 1.9 WNW 19 26 10 14 1011.0 1011.0 0.0
07/01:00am 12.2 8.5 9.4 83 1.4 WNW 19 26 10 14 1011.2 1011.2 0.0
07/12:30am 12.2 9.1 10.3 88 1.0 WNW 17 24 9 13 1011.4 1011.4 0.0
07/12:00am 11.9 8.7 10.1 89 0.9 WNW 17 24 9 13 1011.5 1011.5 0.0
 
Date/Time
EST
Temp
°C
App
Temp
°C
Dew
Point
°C
Rel
Hum
%
Delta-T
°C
Wind Press
QNH
hPa
Press
MSL
hPa
Rain since
9am
mm
Dir  Spd
km/h
Gust
km/h
Spd
kts
Gust
kts
06/11:30pm 11.9 9.9 10.0 88 1.0 WNW 11 15 6 8 1011.8 1011.8 0.0
06/11:00pm 12.2 9.1 10.3 88 1.0 WNW 17 20 9 11 1012.1 1012.1 0.0
06/10:30pm 12.6 9.6 10.5 87 1.1 WNW 17 22 9 12 1012.3 1012.3 0.0
06/10:00pm 13.0 9.1 10.7 86 1.2 WNW 22 26 12 14 1012.7 1012.7 0.0
06/09:30pm 13.2 9.8 10.7 85 1.3 WNW 19 22 10 12 1012.9 1012.9 0.0
06/09:00pm 13.8 11.7 11.1 84 1.4 WNW 13 17 7 9 1013.2 1013.2 0.0
06/08:30pm 15.1 12.4 11.7 80 1.8 WSW 17 20 9 11 1013.6 1013.6 0.0
06/08:00pm 15.5 12.8 11.7 78 2.1 WSW 17 20 9 11 1013.8 1013.8 0.0
06/07:30pm 15.9 12.8 12.3 79 2.0 SW 20 24 11 13 1013.9 1013.9 0.0
06/07:00pm 15.0 13.5 11.8 81 1.7 WNW 11 13 6 7 1014.2 1014.2 0.0
06/06:30pm 14.4 13.0 11.0 80 1.8 WNW 9 11 5 6 1014.3 1014.3 0.0

Other formats

Comma delimited format used in spreadsheet applications
http://www.bom.gov.au/fwo/IDN60801/IDN60801.94933.axf

JavaScript Object Notation format (JSON) in row-major order
http://www.bom.gov.au/fwo/IDN60801/IDN60801.94933.json

Data quality

Most of these data are generated automatically and are frequently updated. Quality checks on data are not normally performed. It is possible for incorrect values to appear. Refer to information at About Latest Weather Observations and please check the disclaimer before using these data.